[[{"header":{"parameterUnit":"m.s-1","parameterCategory":1,"la1":30.2991,"la2":30.254,"lo1":-89.0895,"lo2":-89.0444,"dy":0.0017,"dx":0.0017,"nx":28,"ny":28,"refTime":"2025-03-29T03:00:00:Z","depth":0,"parameterNumber":2,"parameterNumberName":"U-component_of_WINDS"},"data":[0,0,0,0,0,0,0,0,0,0,0,0,0,0,0,0,0,0,0,0,0,0,0,0,0,0,0,0,0,0,0,0,0,0,0,0,0,0,0,0,0,0,0,0,0,0,0,0,0,0,0,0,0,0,0,0,0,0,-2.2414,-2.2416,0,-2.2605,-2.2607,-2.2609,-2.2697,-2.2697,-2.2697,-2.2697,-2.2894,-2.2899,-2.2905,0,0,0,0,0,0,0,0,0,0,0,0,0,-2.2126,-2.2131,-2.2414,-2.2416,-2.2419,-2.2604,-2.2607,-2.261,-2.2697,-2.2697,-2.2697,-2.2697,-2.2892,-2.2899,-2.2905,0,0,0,0,0,0,0,0,0,0,0,0,0,-2.2278,-2.2133,-2.2413,-2.2485,-2.2493,-2.2604,-2.2607,-2.261,-2.2697,-2.2697,-2.2697,-2.2697,-2.289,-2.2898,-2.2906,-2.2961,0,0,-2.2931,-2.2934,0,0,0,0,0,0,0,0,-2.2269,-2.2288,-2.2472,-2.248,-2.2489,-2.2627,-2.2578,-2.2728,-2.2697,-2.262,-2.2697,-2.2697,-2.2805,-2.282,-2.2857,-2.297,-2.2979,-2.2931,-2.2936,-2.294,-2.2942,0,0,0,0,0,0,0,-2.2258,-2.228,-2.249,-2.2474,-2.2485,-2.2508,-2.2529,-2.2607,-2.2712,-2.2627,-2.2633,-2.2655,-2.281,-2.2849,-2.2862,-2.2981,-2.2931,-2.2938,-2.2943,-2.2947,-2.3149,-2.315,0,0,0,0,0,0,-2.2236,-2.2271,-2.2483,-2.2495,-2.2376,-2.2513,-2.2537,-2.2583,-2.2711,-2.273,-2.2655,-2.2658,-2.2835,-2.2853,-2.2869,-2.2942,-2.294,-2.2947,-2.2952,-2.3149,-2.3149,-2.315,0,0,0,0,0,0,-2.223,-2.2254,-2.2476,-2.2385,-2.2415,-2.2518,-2.257,-2.2587,-2.2626,-2.2732,-2.2752,-2.2675,-2.2836,-2.2858,-2.2937,-2.295,-2.2951,-2.2958,-2.3148,-2.3149,-2.315,-2.3088,0,0,0,0,0,0,-2.2221,-2.2251,-2.2273,-2.2385,-2.2419,-2.254,-2.257,-2.2591,-2.2639,-2.2646,-2.2756,-2.2775,-2.2837,-2.2925,-2.2945,-2.2962,-2.2965,-2.3147,-2.3148,-2.3149,-2.3089,-2.3087,-2.3084,0,0,0,0,0,-2.221,-2.2249,-2.2274,-2.2299,-2.2449,-2.2541,-2.256,-2.2631,-2.264,-2.2663,-2.2731,-2.2771,-2.2945,-2.2932,-2.2956,-2.2975,-2.3147,-2.3148,-2.3149,-2.3091,-2.3087,-2.3084,0,0,0,0,0,0,-2.2137,-2.2265,-2.2294,-2.2369,-2.2443,-2.2555,-2.2586,-2.2625,-2.2699,-2.2702,-2.2787,-2.2811,-2.2883,-2.2937,-2.292,-2.3035,-2.305,-2.3056,-2.2997,-2.2995,-2.2992,-2.2978,-2.2971,0,0,0,0,0,-2.2129,-2.2192,-2.2301,-2.2357,-2.2393,-2.2483,-2.2525,-2.2573,-2.2654,-2.2685,-2.276,-2.2836,-2.2909,-2.2955,-2.3027,-2.3097,-2.3123,-2.3122,-2.3119,-2.3117,-2.3121,-2.3162,-2.3163,-2.3154,-2.3154,-2.3154,0,0,-2.2114,-2.2192,-2.2227,-2.2344,-2.2407,-2.2471,-2.2509,-2.2575,-2.2623,-2.2696,-2.2775,-2.2832,-2.2923,-2.2998,-2.3035,-2.3046,-2.3129,-2.3118,-2.3115,-2.3121,-2.3164,-2.3164,-2.3165,-2.3154,-2.3154,-2.3154,0,0,-2.212,-2.2185,-2.2239,-2.2301,-2.2395,-2.2455,-2.2467,-2.2573,-2.2614,-2.2694,-2.275,-2.2809,-2.2931,-2.2994,-2.3042,-2.307,-2.3109,-2.3091,-2.3078,-2.3117,-2.3118,-2.3119,-2.3129,-2.3132,-2.3095,-2.3095,-2.3095,0,-2.209,-2.2189,-2.2262,-2.2325,-2.2375,-2.2442,-2.2497,-2.2554,-2.2667,-2.27,-2.271,-2.2865,-2.2931,-2.3021,-2.3028,-2.3064,-2.3082,-2.3079,-2.3111,-2.3113,-2.3115,-2.3126,-2.313,-2.3092,-2.3092,-2.3092,-2.3093,0,-2.2147,-2.2214,-2.2246,-2.2353,-2.2406,-2.2465,-2.2547,-2.2593,-2.2635,-2.2694,-2.2775,-2.2856,-2.2946,-2.2971,-2.3014,-2.3068,-2.3071,-2.3095,-2.3112,-2.3112,-2.3124,-2.3129,-2.3088,-2.3089,-2.309,-2.309,0,0,-2.2114,-2.2258,-2.2269,-2.2318,-2.2426,-2.248,-2.2541,-2.2628,-2.2666,-2.2741,-2.2795,-2.2896,-2.2919,-2.2973,-2.3024,-2.3058,-2.3075,-2.3078,-2.3081,-2.3075,-2.3139,-2.3121,-2.3124,-2.3101,-2.3102,-2.3103,-2.3132,0,-2.2135,-2.2247,-2.2314,-2.24,-2.2463,-2.2527,-2.2581,-2.2653,-2.2709,-2.277,-2.2833,-2.2903,-2.2927,-2.296,-2.2997,-2.3065,-2.3089,-2.3064,-2.3153,-2.3155,-2.3128,-2.313,-2.3112,-2.3135,-2.3136,-2.3137,-2.3138,0,-2.2175,-2.2248,-2.2339,-2.2439,-2.2468,-2.2515,-2.26,-2.2658,-2.2741,-2.2779,-2.2839,-2.2889,-2.2957,-2.2968,-2.3062,-2.3044,-2.3084,-2.3123,-2.3125,-2.3137,-2.3147,-2.3143,-2.3144,-2.3147,-2.3146,-2.3145,-2.3145,0,-2.2141,-2.2262,-2.2332,-2.2372,-2.2491,-2.2522,-2.2573,-2.2656,-2.2704,-2.2778,-2.281,-2.2891,-2.2936,-2.2998,-2.3069,-2.307,-2.3157,-2.3173,-2.3191,-2.3189,-2.3207,-2.3205,-2.3215,-2.3232,-2.3231,-2.3231,-2.3231,0,-2.2158,-2.2212,-2.2319,-2.2362,-2.2423,-2.25,-2.2559,-2.2615,-2.2688,-2.2744,-2.2805,-2.2856,-2.2946,-2.3008,-2.3064,-2.3134,-2.3154,-2.3187,-2.3202,-2.3182,-2.3178,-2.3211,-2.3211,-2.3232,-2.3232,-2.3232,-2.3232,0,-2.2132,-2.2205,-2.2286,-2.2391,-2.2419,-2.246,-2.255,-2.2595,-2.2653,-2.2723,-2.2744,-2.2836,-2.2912,-2.2989,-2.3092,-2.313,-2.3199,-2.3218,-2.317,-2.3178,-2.3192,-2.319,-2.3224,-2.3232,-2.3242,-2.3241,-2.3241,0,-2.2138,-2.218,-2.2289,-2.233,-2.238,-2.2445,-2.2494,-2.2571,-2.2619,-2.2716,-2.2749,-2.283,-2.2898,-2.3017,-2.3094,-2.3173,-2.3195,-2.3202,-2.3208,-2.3187,-2.3196,-2.3193,-2.3198,-2.3199,-2.3199,-2.3198,-2.3198,0,-2.2141,-2.2175,-2.2242,-2.2322,-2.2378,-2.2445,-2.2514,-2.2544,-2.2635,-2.2686,-2.2764,-2.2817,-2.2922,-2.3001,-2.3089,-2.3143,-2.3186,-2.3195,-2.3204,-2.3185,-2.3156,-2.3172,-2.3164,-2.3194,-2.3195,-2.3195,-2.3195,-2.3195,-2.2132,-2.2172,-2.2255,-2.2328,-2.2387,-2.245,-2.2497,-2.2561,-2.2627,-2.2718,-2.2759,-2.2837,-2.292,-2.3042,-2.3095,-2.3158,-2.3169,-2.3181,-2.3185,-2.3187,-2.3182,-2.3144,-2.3174,-2.3174,-2.3175,-2.3175,-2.3175,0,-2.2139,-2.2195,-2.2261,-2.2355,-2.2412,-2.2445,-2.2523,-2.2569,-2.2637,-2.271,-2.2776,-2.2865,-2.2942,-2.3024,-2.3107,-2.3141,-2.3163,-2.316,-2.3159,-2.3171,-2.3167,-2.3152,-2.3141,-2.3141,-2.3141,-2.3141,-2.3141,-2.3141,-2.2149,-2.2219,-2.2262,-2.2363,-2.2419,-2.2495,-2.2537,-2.2595,-2.2654,-2.2751,-2.2815,-2.2867,-2.2944,-2.3032,-2.3104,-2.3126,-2.3154,-2.3146,-2.3173,-2.3169,-2.3171,-2.3173,-2.3159,-2.3151,-2.3151,-2.3172,-2.3172,-2.3173]},{"header":{"parameterUnit":"m.s-1","parameterCategory":1,"la1":30.2991,"la2":30.254,"lo1":-89.0895,"lo2":-89.0444,"dy":0.0017,"dx":0.0017,"nx":28,"ny":28,"refTime":"2025-03-29T03:00:00:Z","depth":0,"parameterNumber":3,"parameterNumberName":"V-component_of_WINDS"},"data":[0,0,0,0,0,0,0,0,0,0,0,0,0,0,0,0,0,0,0,0,0,0,0,0,0,0,0,0,0,0,0,0,0,0,0,0,0,0,0,0,0,0,0,0,0,0,0,0,0,0,0,0,0,0,0,0,0,0,3.8401,3.8402,0,3.8509,3.851,3.8512,3.8515,3.8514,3.8512,3.8511,3.8626,3.863,3.8634,0,0,0,0,0,0,0,0,0,0,0,0,0,3.8204,3.8208,3.8401,3.8402,3.8403,3.8509,3.851,3.8512,3.8515,3.8514,3.8512,3.851,3.8624,3.8629,3.8635,0,0,0,0,0,0,0,0,0,0,0,0,0,3.8299,3.8209,3.84,3.8418,3.842,3.8509,3.851,3.8512,3.8515,3.8513,3.8511,3.851,3.8623,3.8629,3.8635,3.8715,0,0,3.8655,3.8658,0,0,0,0,0,0,0,0,3.8294,3.8306,3.8414,3.8417,3.842,3.8496,3.8483,3.858,3.8516,3.8479,3.8511,3.8509,3.8585,3.8594,3.8619,3.872,3.8725,3.8656,3.866,3.8662,3.8664,0,0,0,0,0,0,0,3.8287,3.8302,3.8444,3.8415,3.8419,3.8423,3.8434,3.8502,3.8542,3.8482,3.8483,3.8496,3.8586,3.8613,3.8622,3.8727,3.8655,3.8661,3.8665,3.8668,3.8907,3.8909,0,0,0,0,0,0,3.8276,3.8296,3.844,3.8447,3.835,3.8428,3.844,3.8474,3.8541,3.855,3.8497,3.8495,3.8603,3.8614,3.8626,3.8729,3.8662,3.8668,3.8672,3.8904,3.8907,3.891,0,0,0,0,0,0,3.8272,3.8289,3.8436,3.8372,3.8391,3.8433,3.8471,3.8477,3.8504,3.8552,3.856,3.8517,3.8602,3.8617,3.8694,3.8732,3.8671,3.8677,3.8902,3.8905,3.8909,3.8931,0,0,0,0,0,0,3.8266,3.8287,3.8316,3.8372,3.8394,3.85,3.8473,3.8481,3.8514,3.8513,3.8573,3.8581,3.8601,3.8685,3.8701,3.874,3.8682,3.8898,3.8903,3.8908,3.8928,3.8936,3.8942,0,0,0,0,0,3.8259,3.8317,3.8317,3.8335,3.843,3.8502,3.8515,3.8536,3.8517,3.8548,3.8581,3.8579,3.8725,3.8692,3.871,3.8753,3.8896,3.8902,3.8907,3.8924,3.8934,3.8942,0,0,0,0,0,0,3.8264,3.8325,3.8325,3.8403,3.8448,3.8503,3.8542,3.8545,3.8596,3.8593,3.8619,3.8632,3.8711,3.8739,3.8701,3.8837,3.8809,3.8818,3.8816,3.8825,3.8832,3.8825,3.8687,0,0,0,0,0,3.8274,3.8326,3.8376,3.844,3.8463,3.8499,3.853,3.8544,3.8591,3.861,3.8648,3.8696,3.8753,3.879,3.8845,3.8931,3.8948,3.897,3.8977,3.8983,3.8992,3.9046,3.9058,3.8929,3.8929,3.8928,0,0,3.8296,3.8335,3.8366,3.8442,3.8478,3.8535,3.8514,3.8573,3.8616,3.8619,3.8696,3.8726,3.8781,3.8865,3.8904,3.8891,3.9031,3.899,3.8994,3.9,3.9053,3.9065,3.9076,3.8932,3.8932,3.8931,0,0,3.8364,3.8397,3.8457,3.8494,3.8549,3.8574,3.8588,3.8644,3.8664,3.8741,3.8747,3.8799,3.8896,3.8937,3.8971,3.9061,3.9064,3.9078,3.9118,3.917,3.918,3.919,3.9227,3.9239,3.9086,3.9086,3.9086,0,3.8384,3.8467,3.8487,3.8548,3.8584,3.859,3.8653,3.8688,3.8759,3.8785,3.877,3.8895,3.8932,3.9029,3.9052,3.9077,3.9098,3.9072,3.9177,3.9186,3.9195,3.9232,3.9245,3.9088,3.9088,3.9088,3.9087,0,3.8492,3.8549,3.8591,3.8661,3.8701,3.8762,3.8795,3.8834,3.8845,3.8872,3.8954,3.9,3.9067,3.909,3.91,3.919,3.9182,3.9171,3.9144,3.9209,3.9244,3.9257,3.909,3.909,3.9089,3.9089,0,0,3.8565,3.8647,3.8663,3.8697,3.8761,3.8807,3.8871,3.8937,3.8972,3.9022,3.908,3.9164,3.9156,3.9195,3.921,3.9255,3.9331,3.924,3.9242,3.926,3.944,3.9451,3.9466,3.9332,3.9335,3.9337,3.9437,0,3.8644,3.8756,3.8779,3.8878,3.8935,3.8944,3.9001,3.9048,3.9076,3.9131,3.9162,3.9224,3.9206,3.9231,3.9276,3.9312,3.9368,3.9305,3.9391,3.9393,3.938,3.9483,3.9493,3.9585,3.945,3.9453,3.9454,0,3.8749,3.8804,3.8909,3.897,3.8995,3.9045,3.9111,3.9161,3.9217,3.9235,3.928,3.9292,3.9364,3.9332,3.9433,3.939,3.9427,3.945,3.9455,3.9466,3.943,3.9502,3.9614,3.963,3.9475,3.9473,3.9471,0,3.8799,3.8897,3.8974,3.9003,3.9075,3.9111,3.9144,3.9197,3.9237,3.9295,3.9323,3.9387,3.9424,3.9476,3.9507,3.948,3.9609,3.9578,3.9629,3.9629,3.9658,3.9656,3.9782,3.9675,3.9675,3.9674,3.9674,0,3.8886,3.8951,3.8998,3.9046,3.9121,3.9148,3.9223,3.9255,3.9304,3.9361,3.9372,3.9426,3.9462,3.9522,3.9547,3.9631,3.9646,3.9666,3.9673,3.9667,3.9665,3.9694,3.969,3.9678,3.9677,3.9677,3.9676,0,3.8954,3.8987,3.9073,3.9136,3.9153,3.9206,3.9262,3.9311,3.934,3.9413,3.9432,3.9479,3.9552,3.9587,3.9676,3.9693,3.979,3.979,3.9771,3.9775,3.9826,3.9823,3.9978,4.0002,3.9875,3.9876,3.9877,0,3.9008,3.9059,3.9129,3.9168,3.9202,3.9263,3.9306,3.9336,3.9379,3.945,3.9492,3.9565,3.9625,3.9741,3.9785,3.9855,3.986,3.991,3.987,3.9866,3.9867,3.9865,3.9873,3.9917,3.9919,3.992,3.992,0,3.9105,3.912,3.9179,3.9246,3.9296,3.935,3.9403,3.9435,3.9475,3.9525,3.9599,3.9645,3.9739,3.9813,3.9887,3.9923,3.9931,3.9932,3.9949,3.9946,3.9935,3.9947,3.9795,3.9929,3.9928,3.9927,3.9927,3.9927,3.9171,3.9219,3.9277,3.9344,3.9388,3.9439,3.949,3.9528,3.959,3.9668,3.9682,3.9763,3.9824,3.9924,3.9964,4.0029,4.0019,4.0041,4.0048,4.0054,4.006,3.9922,4.0042,4.0042,4.0042,4.0042,4.0042,0,3.9272,3.9311,3.9372,3.9448,3.9503,3.9504,3.9564,3.9611,3.9681,3.9737,3.9797,3.9885,3.9959,4.001,4.0086,4.0129,4.0135,4.0149,4.0148,4.0157,4.0062,4.0042,4.0143,4.0143,4.0143,4.0143,4.0143,4.0143,3.9331,3.9414,3.9437,3.9545,3.9584,3.9662,3.9698,3.9747,3.9792,3.9891,3.9952,3.9985,4.0041,4.0122,4.0191,4.0205,4.0234,4.0249,4.0263,4.0174,4.0163,4.0153,4.0135,4.0253,4.0254,4.0353,4.0354,4.0355]}]]